Location: East Horndon
(51.5667°N, 0.3500°E)
Time: 11:29:14
(UTC+00:00)

Cosmos 2056 Rocket - Pass Details

Date: 08 November 2025
Orbit: 739 x 795 km, 74.0° (Epoch: 10 December)

Event Time Altitude Azimuth Distance (km) Brightness Sun altitude
Rises 06:18:59 0° 202° (SSW) 3,283 6.7 -7.5°
Reaches altitude 10° 06:21:22 10° 202° (SSW) 2,360 6.0 -7.1°
Maximum altitude 06:26:46 88° 115° (ESE) 804 3.7 -6.3°
Drops below altitude 10° 06:32:11 10° 25° (NNE) 2,371 6.1 -5.5°
Sets 06:34:35 0° 26° (NNE) 3,300 6.9 -5.2°
